[[{"header":{"parameterUnit":"m.s-1","parameterCategory":1,"la1":30.2991,"la2":30.254,"lo1":-89.0895,"lo2":-89.0444,"dy":0.0017,"dx":0.0017,"nx":28,"ny":28,"refTime":"2023-11-01T03:00:00:Z","depth":0,"parameterNumber":2,"parameterNumberName":"U-component_of_WINDS"},"data":[0,0,0,0,0,0,0,0,0,0,0,0,0,0,0,0,0,0,0,0,0,0,0,0,0,0,0,0,0,0,0,0,0,0,0,0,0,0,0,0,0,0,0,0,0,0,0,0,0,0,0,0,0,0,0,0,0,0,-1.1639,-1.164,0,-1.1715,-1.1716,-1.1717,-1.1681,-1.1679,-1.1677,-1.1676,-1.1755,-1.1759,-1.1763,0,0,0,0,0,0,0,0,0,0,0,0,0,-1.1463,-1.1466,-1.1639,-1.164,-1.1641,-1.1715,-1.1716,-1.1717,-1.1682,-1.1679,-1.1677,-1.1675,-1.1754,-1.1759,-1.1763,0,0,0,0,0,0,0,0,0,0,0,0,0,-1.1539,-1.1468,-1.1639,-1.1632,-1.1632,-1.1715,-1.1716,-1.1717,-1.1682,-1.1679,-1.1676,-1.1674,-1.1753,-1.1758,-1.1764,-1.1858,0,0,-1.1782,-1.1785,0,0,0,0,0,0,0,0,-1.1535,-1.1546,-1.1632,-1.1633,-1.1633,-1.1686,-1.1683,-1.1765,-1.1683,-1.1663,-1.1676,-1.1672,-1.1735,-1.1742,-1.1763,-1.1862,-1.1865,-1.1783,-1.1786,-1.1789,-1.179,0,0,0,0,0,0,0,-1.153,-1.1542,-1.1669,-1.1633,-1.1634,-1.1625,-1.1633,-1.1699,-1.1714,-1.1665,-1.1662,-1.1672,-1.1734,-1.1757,-1.1764,-1.1867,-1.1782,-1.1788,-1.1791,-1.1794,-1.2047,-1.205,0,0,0,0,0,0,-1.1525,-1.1538,-1.1667,-1.1671,-1.1576,-1.1631,-1.1639,-1.1672,-1.1713,-1.1717,-1.1674,-1.167,-1.1748,-1.1757,-1.1767,-1.188,-1.1789,-1.1794,-1.1797,-1.2043,-1.2047,-1.2051,0,0,0,0,0,0,-1.1521,-1.1536,-1.1664,-1.1604,-1.162,-1.1637,-1.1674,-1.1675,-1.1697,-1.1721,-1.1723,-1.1694,-1.1746,-1.1759,-1.1836,-1.1883,-1.1797,-1.1802,-1.204,-1.2045,-1.2049,-1.2108,0,0,0,0,0,0,-1.1516,-1.1535,-1.1572,-1.1605,-1.1623,-1.1731,-1.1676,-1.1678,-1.1707,-1.1703,-1.174,-1.1744,-1.1745,-1.1827,-1.1841,-1.1889,-1.1807,-1.2036,-1.2042,-1.2048,-1.2102,-1.2114,-1.2125,0,0,0,0,0,-1.151,-1.1586,-1.1574,-1.1589,-1.1668,-1.1734,-1.1744,-1.1744,-1.1711,-1.1748,-1.1762,-1.1743,-1.1874,-1.1835,-1.1851,-1.1901,-1.2033,-1.204,-1.2047,-1.2097,-1.2112,-1.2125,0,0,0,0,0,0,-1.1558,-1.159,-1.1577,-1.1666,-1.1697,-1.1728,-1.1774,-1.176,-1.1802,-1.1796,-1.1793,-1.1802,-1.1882,-1.1899,-1.1855,-1.1994,-1.1949,-1.1959,-1.1981,-1.1996,-1.2007,-1.2002,-1.1812,0,0,0,0,0,-1.1578,-1.1629,-1.1654,-1.173,-1.1746,-1.1758,-1.1786,-1.1783,-1.1816,-1.1829,-1.185,-1.1883,-1.1931,-1.1964,-1.201,-1.2103,-1.2111,-1.2145,-1.2157,-1.2166,-1.2176,-1.2227,-1.2243,-1.2074,-1.2074,-1.2074,0,0,-1.1622,-1.1646,-1.1678,-1.174,-1.1764,-1.1817,-1.1769,-1.1827,-1.1866,-1.1838,-1.1913,-1.1928,-1.1965,-1.205,-1.2089,-1.2067,-1.2224,-1.2175,-1.2182,-1.2188,-1.2236,-1.2252,-1.2266,-1.2079,-1.2078,-1.2078,0,0,-1.173,-1.1752,-1.1818,-1.1842,-1.1879,-1.1886,-1.1901,-1.1934,-1.1943,-1.2017,-1.1997,-1.2043,-1.2127,-1.2155,-1.2179,-1.2294,-1.2278,-1.2309,-1.237,-1.2419,-1.2432,-1.2444,-1.2486,-1.2501,-1.2318,-1.2318,-1.2319,0,-1.178,-1.1858,-1.1854,-1.1913,-1.1941,-1.1916,-1.1983,-1.2007,-1.2058,-1.2078,-1.2051,-1.2156,-1.2179,-1.227,-1.2298,-1.2318,-1.2337,-1.2306,-1.243,-1.2442,-1.2453,-1.2494,-1.2509,-1.2322,-1.2322,-1.2321,-1.2321,0,-1.1919,-1.1973,-1.2022,-1.207,-1.2103,-1.2166,-1.2171,-1.2205,-1.2197,-1.2207,-1.2282,-1.2308,-1.2359,-1.238,-1.2374,-1.2471,-1.2456,-1.243,-1.2385,-1.2473,-1.2511,-1.2526,-1.2328,-1.2326,-1.2325,-1.2324,0,0,-1.2062,-1.2105,-1.2123,-1.2145,-1.2182,-1.2224,-1.2285,-1.2334,-1.2364,-1.2398,-1.245,-1.252,-1.2496,-1.2525,-1.2521,-1.2564,-1.2654,-1.2533,-1.2533,-1.2556,-1.2763,-1.2785,-1.2802,-1.2642,-1.2645,-1.2647,-1.2761,0,-1.2173,-1.228,-1.2277,-1.2377,-1.2427,-1.2403,-1.2456,-1.2485,-1.2494,-1.2538,-1.2548,-1.2599,-1.2563,-1.258,-1.2621,-1.2635,-1.2696,-1.2626,-1.2691,-1.2694,-1.2686,-1.2822,-1.2845,-1.2951,-1.2775,-1.2778,-1.278,0,-1.2318,-1.2357,-1.2462,-1.2491,-1.2512,-1.256,-1.2604,-1.2646,-1.2678,-1.2682,-1.2712,-1.2701,-1.2763,-1.2713,-1.2798,-1.2751,-1.2776,-1.2787,-1.2791,-1.2799,-1.2744,-1.2836,-1.2985,-1.3002,-1.2803,-1.2801,-1.2799,0,-1.2414,-1.2492,-1.2565,-1.2584,-1.2619,-1.2654,-1.267,-1.2699,-1.2728,-1.2766,-1.2786,-1.283,-1.2856,-1.2891,-1.2892,-1.2855,-1.2979,-1.2929,-1.2984,-1.2985,-1.3014,-1.3013,-1.3172,-1.3027,-1.3027,-1.3026,-1.3026,0,-1.254,-1.2606,-1.2608,-1.2654,-1.2726,-1.2721,-1.2793,-1.2805,-1.2831,-1.2878,-1.2859,-1.2904,-1.2901,-1.2947,-1.2947,-1.3019,-1.3029,-1.3035,-1.3035,-1.3038,-1.3038,-1.3057,-1.3051,-1.303,-1.303,-1.3029,-1.3028,0,-1.2661,-1.2665,-1.2743,-1.277,-1.2778,-1.283,-1.2853,-1.2896,-1.2902,-1.2962,-1.2976,-1.2987,-1.3039,-1.3042,-1.3103,-1.3103,-1.319,-1.3181,-1.318,-1.3179,-1.3235,-1.3231,-1.3414,-1.3438,-1.3276,-1.3277,-1.3278,0,-1.2743,-1.2793,-1.2824,-1.2854,-1.2872,-1.2921,-1.295,-1.2946,-1.2978,-1.3016,-1.3055,-1.3104,-1.3145,-1.3229,-1.3242,-1.3288,-1.3281,-1.3342,-1.3288,-1.329,-1.3284,-1.3282,-1.3288,-1.3354,-1.3355,-1.3357,-1.3358,0,-1.2888,-1.2887,-1.293,-1.2974,-1.301,-1.3044,-1.3076,-1.3102,-1.3101,-1.3137,-1.319,-1.3221,-1.3282,-1.3332,-1.3376,-1.3393,-1.3376,-1.3374,-1.339,-1.3395,-1.3393,-1.3397,-1.3211,-1.3371,-1.337,-1.3369,-1.3368,-1.3367,-1.2994,-1.3037,-1.3065,-1.3114,-1.3137,-1.3167,-1.3208,-1.3219,-1.3263,-1.3312,-1.3306,-1.3365,-1.3394,-1.3451,-1.3471,-1.3517,-1.3497,-1.3519,-1.3525,-1.3531,-1.3538,-1.3384,-1.3525,-1.3524,-1.3524,-1.3524,-1.3524,0,-1.314,-1.3156,-1.32,-1.3245,-1.3283,-1.3262,-1.3296,-1.3329,-1.3381,-1.3409,-1.3448,-1.3508,-1.3556,-1.3572,-1.3619,-1.3652,-1.3646,-1.3665,-1.3664,-1.3668,-1.3553,-1.3536,-1.3669,-1.3669,-1.3669,-1.3669,-1.3669,-1.3669,-1.322,-1.3292,-1.3294,-1.3377,-1.3393,-1.345,-1.3472,-1.3499,-1.3521,-1.3589,-1.3629,-1.3638,-1.3661,-1.3709,-1.3752,-1.3755,-1.3774,-1.3797,-1.3798,-1.3691,-1.3676,-1.3662,-1.3646,-1.3801,-1.3801,-1.3909,-1.391,-1.3911]},{"header":{"parameterUnit":"m.s-1","parameterCategory":1,"la1":30.2991,"la2":30.254,"lo1":-89.0895,"lo2":-89.0444,"dy":0.0017,"dx":0.0017,"nx":28,"ny":28,"refTime":"2023-11-01T03:00:00:Z","depth":0,"parameterNumber":3,"parameterNumberName":"V-component_of_WINDS"},"data":[0,0,0,0,0,0,0,0,0,0,0,0,0,0,0,0,0,0,0,0,0,0,0,0,0,0,0,0,0,0,0,0,0,0,0,0,0,0,0,0,0,0,0,0,0,0,0,0,0,0,0,0,0,0,0,0,0,0,-9.6493,-9.6495,0,-9.6681,-9.6684,-9.6686,-9.6563,-9.6557,-9.6552,-9.6546,-9.6731,-9.6741,-9.6751,0,0,0,0,0,0,0,0,0,0,0,0,0,-9.6019,-9.6029,-9.6493,-9.6495,-9.6498,-9.6681,-9.6684,-9.6686,-9.6564,-9.6557,-9.655,-9.6544,-9.6728,-9.674,-9.6752,0,0,0,0,0,0,0,0,0,0,0,0,0,-9.6218,-9.6032,-9.6493,-9.6459,-9.6458,-9.6681,-9.6684,-9.6687,-9.6566,-9.6557,-9.6549,-9.6541,-9.6724,-9.6739,-9.6754,-9.7017,0,0,-9.68,-9.6807,0,0,0,0,0,0,0,0,-9.6207,-9.6235,-9.6462,-9.6462,-9.6461,-9.659,-9.6584,-9.6797,-9.6568,-9.6525,-9.6546,-9.6537,-9.6691,-9.6708,-9.6762,-9.7026,-9.7034,-9.6802,-9.6811,-9.6817,-9.6822,0,0,0,0,0,0,0,-9.6193,-9.6226,-9.6567,-9.6465,-9.6465,-9.6432,-9.6451,-9.6624,-9.6652,-9.6528,-9.6519,-9.6544,-9.6689,-9.6747,-9.6765,-9.7036,-9.6801,-9.6815,-9.6824,-9.683,-9.7525,-9.7533,0,0,0,0,0,0,-9.6183,-9.6216,-9.6561,-9.6573,-9.6311,-9.6447,-9.6468,-9.6557,-9.665,-9.6656,-9.6551,-9.6537,-9.6725,-9.6747,-9.6771,-9.7086,-9.6817,-9.6831,-9.684,-9.7515,-9.7527,-9.7537,0,0,0,0,0,0,-9.6174,-9.6215,-9.6554,-9.6392,-9.6433,-9.6465,-9.6565,-9.6565,-9.6624,-9.6668,-9.6671,-9.6606,-9.6719,-9.6749,-9.6957,-9.709,-9.6838,-9.6852,-9.7504,-9.7519,-9.7532,-9.7717,0,0,0,0,0,0,-9.6161,-9.6213,-9.6315,-9.6396,-9.6442,-9.674,-9.6573,-9.6575,-9.6652,-9.6636,-9.6721,-9.6726,-9.6715,-9.6935,-9.6972,-9.7107,-9.6864,-9.7493,-9.7511,-9.7527,-9.77,-9.7736,-9.7767,0,0,0,0,0,-9.6144,-9.6358,-9.6321,-9.6363,-9.6571,-9.6748,-9.6774,-9.6759,-9.6663,-9.6765,-9.6793,-9.6724,-9.707,-9.6957,-9.6998,-9.7139,-9.7484,-9.7506,-9.7526,-9.7684,-9.7729,-9.7766,0,0,0,0,0,0,-9.629,-9.6368,-9.6328,-9.6575,-9.6656,-9.6727,-9.6856,-9.6807,-9.6915,-9.6895,-9.6869,-9.689,-9.7107,-9.7143,-9.7017,-9.7399,-9.7261,-9.7291,-9.7368,-9.741,-9.7443,-9.743,-9.6877,0,0,0,0,0,-9.6351,-9.6491,-9.655,-9.6762,-9.6806,-9.6824,-9.69,-9.6882,-9.6964,-9.6997,-9.704,-9.7119,-9.7246,-9.7329,-9.7448,-9.7703,-9.772,-9.782,-9.7854,-9.7882,-9.7908,-9.8045,-9.8091,-9.7606,-9.7605,-9.7605,0,0,-9.6478,-9.6538,-9.6628,-9.6793,-9.6854,-9.6997,-9.6854,-9.7011,-9.7116,-9.7019,-9.722,-9.7254,-9.734,-9.7574,-9.7678,-9.761,-9.8046,-9.7908,-9.793,-9.7942,-9.8072,-9.8118,-9.8158,-9.762,-9.7617,-9.7615,0,0,-9.6784,-9.6844,-9.7028,-9.7092,-9.7187,-9.7197,-9.7241,-9.732,-9.734,-9.7541,-9.7472,-9.7594,-9.7813,-9.7878,-9.794,-9.8269,-9.8209,-9.8308,-9.8485,-9.8619,-9.8658,-9.8691,-9.8809,-9.8852,-9.8334,-9.8335,-9.8335,0,-9.693,-9.7145,-9.7127,-9.7291,-9.7365,-9.7287,-9.7471,-9.7533,-9.7661,-9.7713,-9.7635,-9.7909,-9.7961,-9.8208,-9.8289,-9.8341,-9.8389,-9.8299,-9.8654,-9.8688,-9.8719,-9.8831,-9.8875,-9.8346,-9.8345,-9.8344,-9.8343,0,-9.732,-9.747,-9.7606,-9.7735,-9.7824,-9.7997,-9.8003,-9.8095,-9.8068,-9.8086,-9.829,-9.8351,-9.8481,-9.8538,-9.8512,-9.8781,-9.8736,-9.8658,-9.8519,-9.8777,-9.8882,-9.8924,-9.8363,-9.8358,-9.8355,-9.8352,0,0,-9.7723,-9.784,-9.7891,-9.7948,-9.8047,-9.8161,-9.8329,-9.8459,-9.8538,-9.8628,-9.8767,-9.8954,-9.8882,-9.8952,-9.8932,-9.905,-9.9308,-9.8956,-9.8958,-9.902,-9.9607,-9.9667,-9.9717,-9.9268,-9.9276,-9.9282,-9.96,0,-9.8035,-9.8333,-9.8321,-9.8597,-9.8735,-9.8663,-9.8809,-9.8883,-9.8905,-9.9022,-9.9043,-9.9177,-9.9071,-9.9113,-9.9226,-9.9253,-9.9425,-9.9229,-9.9396,-9.9402,-9.9378,-9.9772,-9.9836,-10.0133,-9.9641,-9.9648,-9.9653,0,-9.8439,-9.8546,-9.8838,-9.8916,-9.8973,-9.9106,-9.9223,-9.9337,-9.9419,-9.9426,-9.9505,-9.9467,-9.9634,-9.9491,-9.972,-9.9587,-9.9654,-9.9677,-9.9688,-9.9704,-9.9544,-9.9799,-10.0227,-10.0272,-9.9717,-9.9712,-9.9707,0,-9.8705,-9.8922,-9.9124,-9.9175,-9.9271,-9.9366,-9.941,-9.9484,-9.9563,-9.9664,-9.9714,-9.9833,-9.9898,-9.999,-9.9983,-9.988,-10.0216,-10.0072,-10.0225,-10.0226,-10.03,-10.0296,-10.0746,-10.0342,-10.0341,-10.0341,-10.034,0,-9.9055,-9.9237,-9.9245,-9.937,-9.957,-9.9553,-9.9751,-9.9784,-9.9851,-9.9978,-9.9921,-10.0041,-10.0025,-10.0145,-10.0141,-10.0331,-10.036,-10.0369,-10.0366,-10.0376,-10.0375,-10.042,-10.0399,-10.0352,-10.035,-10.0347,-10.0345,0,-9.9387,-9.94,-9.9617,-9.969,-9.9713,-9.9857,-9.9919,-10.0036,-10.0051,-10.0214,-10.025,-10.0275,-10.0413,-10.0416,-10.0573,-10.057,-10.0803,-10.0776,-10.0777,-10.0772,-10.0925,-10.0911,-10.1421,-10.1487,-10.1039,-10.1044,-10.1047,0,-9.961,-9.9749,-9.9838,-9.9921,-9.9972,-10.0106,-10.0186,-10.0174,-10.026,-10.0364,-10.0468,-10.0602,-10.0708,-10.0932,-10.0962,-10.1082,-10.1058,-10.1228,-10.1075,-10.108,-10.1061,-10.1053,-10.1067,-10.1258,-10.1263,-10.1267,-10.127,0,-10.0006,-10.0005,-10.0126,-10.0249,-10.0348,-10.0443,-10.0531,-10.0601,-10.0599,-10.0697,-10.084,-10.0923,-10.1085,-10.1218,-10.1335,-10.1376,-10.1323,-10.1318,-10.136,-10.1372,-10.1367,-10.1372,-10.086,-10.1307,-10.1303,-10.13,-10.1298,-10.1297,-10.029,-10.041,-10.0492,-10.0628,-10.0693,-10.0777,-10.0891,-10.0922,-10.1042,-10.1175,-10.1159,-10.1318,-10.1394,-10.1546,-10.1597,-10.1719,-10.1659,-10.172,-10.1735,-10.1751,-10.1768,-10.1347,-10.174,-10.1738,-10.1737,-10.1737,-10.1736,0,-10.0683,-10.0733,-10.0858,-10.0984,-10.1091,-10.1034,-10.1128,-10.122,-10.1362,-10.1439,-10.1546,-10.1709,-10.1838,-10.1878,-10.2002,-10.2091,-10.207,-10.2124,-10.2118,-10.2128,-10.1814,-10.1766,-10.2139,-10.2139,-10.2139,-10.2139,-10.2139,-10.2139,-10.09,-10.11,-10.1109,-10.134,-10.1386,-10.1545,-10.1603,-10.1679,-10.1741,-10.1928,-10.2036,-10.2061,-10.2123,-10.2251,-10.2366,-10.2374,-10.2422,-10.2487,-10.2485,-10.2191,-10.215,-10.2112,-10.2067,-10.2497,-10.2498,-10.2789,-10.2792,-10.2794]}]]